This demonstration page uses our WeatherBlox Daily Observations layout. Learn more.

Left ArrowRight Arrow

39.95238, -75.16362

Hourly Observations for December 5, 2022

Temp ( °F °C ) Dew Point ( °F °C ) Humidity (%) Winds ( mph kmh ) Pressure ( in mb ) Visibility ( mi km ) Precip ( " mm )
12:54 am 00:54 Clear 30 -1.1 26 -3.3 85 85 Calm 30.21 1023 10 16 0.00 0.00
1:54 am 01:54 Clear 31 -0.6 25 -3.9 78 78 WNW 3 6 30.22 1023 10 16 0.00 0.00
2:54 am 02:54 Clear 30 -1.1 25 -3.9 81 81 Calm 30.22 1023 10 16 0.00 0.00
3:54 am 03:54 Clear 28 -2.2 24 -4.4 85 85 Calm 30.22 1024 10 16 0.00 0.00
4:54 am 04:54 Clear 28 -2.2 25 -3.9 88 88 Calm 30.23 1024 10 16 0.00 0.00
5:54 am 05:54 Clear 28 -2.2 25 -3.9 88 88 SW 5 7 30.26 1025 10 16 0.00 0.00
6:54 am 06:54 Mostly Clear 29 -1.7 26 -3.3 89 89 Calm 30.27 1025 10 16 0.00 0.00
7:54 am 07:54 Mostly Sunny 30 -1.1 26 -3.3 85 85 Calm 30.28 1025 10 16 0.00 0.00
8:54 am 08:54 Mostly Sunny 35 1.7 29 -1.7 78 78 Calm 30.30 1026 10 16 0.00 0.00
9:54 am 09:54 Mostly Sunny 38 3.3 31 -0.6 76 76 Calm 30.32 1027 10 16 0.00 0.00
10:54 am 10:54 Mostly Cloudy 42 5.6 29 -1.7 59 59 Calm 30.31 1027 10 16 0.00 0.00
11:54 am 11:54 Mostly Cloudy 46 7.8 25 -3.9 43 43 S 8 13 30.28 1025 10 16 0.00 0.00
12:54 pm 12:54 Mostly Cloudy 48 8.9 27 -2.8 44 44 SSE 6 9 30.26 1025 10 16 0.00 0.00
1:54 pm 13:54 Mostly Cloudy 49 9.4 24 -4.4 37 37 S 7 11 30.25 1024 10 16 0.00 0.00
2:54 pm 14:54 Mostly Cloudy 49 9.4 25 -3.9 39 39 S 6 9 30.25 1024 10 16 0.00 0.00
3:54 pm 15:54 Mostly Cloudy 48 8.9 24 -4.4 39 39 S 5 7 30.25 1024 10 16 0.00 0.00
4:54 pm 16:54 Partly Cloudy 46 7.8 21 -6.1 37 37 VRB 3 6 30.26 1025 10 16 0.00 0.00
5:54 pm 17:54 Partly Cloudy 43 6.1 26 -3.3 51 51 S 6 9 30.28 1025 10 16 0.00 0.00
6:54 pm 18:54 Mostly Clear 41 5 28 -2.2 60 60 SE 3 6 30.28 1025 10 16 0.00 0.00
7:54 pm 19:54 Mostly Clear 39 3.9 29 -1.7 67 67 ESE 3 6 30.29 1026 10 16 0.00 0.00
8:54 pm 20:54 Mostly Clear 37 2.8 27 -2.8 67 67 E 5 7 30.30 1026 10 16 0.00 0.00
9:54 pm 21:54 Partly Cloudy 37 2.8 28 -2.2 70 70 E 5 7 30.29 1026 10 16 0.00 0.00
10:54 pm 22:54 Mostly Cloudy 36 2.2 27 -2.8 69 69 Calm 30.30 1026 10 16 0.00 0.00
11:54 pm 23:54 Partly Cloudy 34 1.1 27 -2.8 75 75 NE 3 6 30.29 1026 10 16 0.00 0.00

Powered by AerisWeather